#timestamp,LO_Frequency,Hit,StdDev 
1596978015.1,286047007.6,N
1596978035.9,286047007.6,N
1596978055.7,286047005.0,N
1596978075.6,286047003.1,N
1596978095.4,286047004.1,N
1596978115.2,286047005.6,N
1596978135.1,286047006.0,N
1596978136.0,286047006.0,N
1596978155.8,286047002.4,N
1596978175.6,286047002.8,N
1596978195.5,286047002.8,N
1596978215.3,286047002.2,N
1596978235.2,286047000.8,N
1596978255.9,286046998.7,N
1596978275.7,286047000.2,N
1596978295.6,286046997.0,N
1596978315.4,286046997.5,N
1596978335.2,286046997.2,N
1596978355.1,286046999.5,N
1596978356.0,286046999.5,N
1596978375.8,286046998.4,N
1596978395.7,286047001.2,N
1596978415.5,286047002.4,N
1596978435.3,286047004.3,N
1596978455.2,286047003.5,N
1596978475.0,286047004.6,N
1596978475.9,286047004.6,N
1596978495.7,286047002.8,N
1596978515.6,286047002.7,N
1596978535.4,286047002.2,N
1596978555.3,286047002.1,N
1596978575.1,286047000.7,N
1596978595.9,286046999.4,N
1596978615.7,286046998.6,N
1596978635.5,286047000.2,N
1596978655.4,286046998.5,N
1596978675.2,286047000.8,N
1596978695.1,286047000.3,N
1596978696.0,286047000.3,N
1596978715.8,286047002.2,N
1596978735.6,286047001.8,N
1596978755.5,286047002.6,N
1596978775.3,286047000.5,N
1596978795.1,286046999.4,N
1596978815.9,286046999.1,N
1596978835.7,286046999.5,N
1596978855.6,286046996.5,N
1596978875.4,286046998.4,N
1596978895.2,286046999.3,N
1596978915.1,286046997.0,N
1596978916.0,286046997.0,N
1596978935.8,286046998.8,N
1596978955.7,286046998.4,N
1596978975.5,286046998.1,N
1596978995.3,286046998.3,N
1596979015.2,286047000.8,N
1596979035.0,286046999.3,N
1596979035.9,286046999.3,N
1596979055.7,286046999.0,N
1596979075.6,286046997.8,N
1596979095.4,286046995.9,N
1596979115.3,286046994.2,Y
1596979135.1,286046994.8,P
1596979136.0,286046994.8,N
1596979155.8,286046991.9,P
1596979175.7,286046993.6,N
1596979195.5,286046993.9,N
1596979215.4,286046993.0,Y
1596979235.2,286046998.9,P
1596979255.0,286046998.8,N
1596979255.9,286046998.8,N
1596979275.8,286046999.5,N
1596979295.6,286046997.8,N
1596979315.4,286046995.0,Y
1596979335.3,286046997.0,P
1596979355.1,286046999.4,N
1596979375.9,286047001.0,N
1596979395.7,286047001.5,N
1596979415.5,286047002.3,N
1596979435.4,286047002.1,N
1596979455.2,286047003.9,N
1596979475.0,286047004.2,N
1596979475.9,286047004.2,N
1596979495.8,286047007.1,N
1596979515.6,286047007.4,N
1596979535.5,286047005.1,N
1596979555.3,286047005.0,N
1596979575.1,286047004.5,N
1596979595.9,286047003.4,N
1596979615.7,286047002.0,N
1596979635.6,286047000.3,N
1596979655.4,286046998.2,N
1596979675.2,286046998.6,N
1596979695.1,286047000.7,N
1596979696.0,286047000.7,N
1596979715.8,286047000.8,N
1596979735.6,286046998.6,N
1596979755.5,286046999.0,N
1596979775.3,286046998.7,N
1596979795.2,286046996.5,N
1596979815.9,286046999.6,N
1596979835.7,286046996.7,N
1596979855.6,286046999.3,N
1596979875.4,286046999.4,N
1596979895.2,286046996.6,N
1596979915.1,286046999.6,N
1596979916.0,286046999.6,N
1596979935.8,286046997.0,N
1596979955.7,286046997.9,N
1596979975.5,286046995.2,N
1596979995.3,286046995.7,N
1596980015.2,286046995.0,N
1596980035.9,286046997.6,N
1596980055.7,286046997.8,N
1596980075.6,286046997.3,N
1596980095.4,286046996.8,N
1596980115.3,286046996.7,N
1596980135.1,286046997.0,N
1596980136.0,286046997.0,N
1596980155.8,286046999.5,N
1596980175.7,286046999.6,N
1596980195.5,286046997.7,N
1596980215.3,286046996.7,N
1596980235.2,286046999.0,N
1596980255.0,286046999.3,N
1596980255.9,286046999.3,N
1596980275.8,286046998.9,N
1596980295.6,286047001.2,N
1596980315.4,286047000.3,N
1596980335.3,286046998.3,N
1596980355.1,286046998.1,N
1596980405.9,286047000.5,E
1596980415.8,286046998.4,N
1596980435.6,286047000.0,P
1596980455.5,286047000.1,N
1596980475.3,286046999.3,N
1596980495.1,286046997.4,Y
1596980515.9,286046996.9,P
1596980535.5,286046997.6,N
1596980555.3,286046997.5,N
1596980575.1,286046999.2,N
1596980595.9,286046997.4,N
1596980615.7,286046994.9,Y
1596980635.5,286046997.1,P
1596980655.4,286046997.9,P
1596980675.2,286046996.8,P
1596980695.1,286046998.5,N
1596980696.0,286046998.5,N
1596980715.8,286046999.1,N
1596980735.6,286046997.0,Y
1596980755.5,286046996.5,P
1596980775.3,286046998.5,N
1596980795.2,286047000.6,N
1596980815.9,286047002.0,N
1596980835.7,286047002.1,N
1596980855.6,286047004.1,N
1596980875.4,286047004.7,N
1596980895.3,286047009.2,Y
1596980915.1,286047004.5,P
1596980916.0,286047004.5,N
1596980935.8,286047007.2,P
1596980955.7,286047004.7,N
1596980975.5,286047007.5,Y
1596980995.3,286047001.8,P
1596981015.2,286047005.6,P
1596981035.0,286047005.5,P
1596981035.9,286047005.5,Y
1596981055.8,286046998.6,P
1596981075.6,286046998.8,N
1596981095.4,286046995.2,N
1596981115.3,286046994.0,N
1596981135.1,286046992.0,N
1596981155.9,286046993.0,N
1596981175.7,286046991.5,N
1596981195.5,286046989.0,N
1596981215.4,286046991.0,N
1596981235.2,286046993.2,N
1596981255.0,286046994.7,N
1596981255.9,286046994.7,N
1596981275.8,286046994.7,N
1596981295.6,286046993.3,N
1596981315.5,286046994.9,N
1596981335.3,286046997.3,N
1596981355.1,286046996.7,N
1596981375.9,286046997.6,N
1596981395.7,286046994.6,N
1596981415.5,286046992.4,N
1596981435.4,286046991.2,N
1596981455.2,286046990.1,Y
1596981475.1,286046999.5,P
1596981476.0,286046999.5,N
1596981495.8,286047000.8,N
1596981515.6,286046998.1,N
1596981535.5,286047001.2,N
1596981555.3,286047002.7,N
1596981575.1,286046998.5,N
1596981595.9,286046995.0,N
